| time (UTC) | temp F | wind direction | speed MPH | gust MPH | rain 1hr in | rain 24hr in | rain mn in | humidity % | barometer mb |
| 20260507154522 | 77 | 303 | 19.0 | 31.0 | 0.00 | 0.00 | 0.00 | 73 | 1001.2 |
| 20260507153018 | 76 | 276 | 18.0 | 28.0 | 0.00 | 0.00 | 0.00 | 75 | 1001.4 |
| 20260507151513 | 74 | 301 | 13.0 | 25.0 | 0.00 | 0.00 | 0.00 | 81 | 1001.8 |
| 20260507150010 | 73 | 304 | 14.0 | 23.0 | 0.00 | 0.00 | 0.00 | 83 | 1001.9 |
| 20260507144504 | 72 | 298 | 13.0 | 18.0 | 0.00 | 0.00 | 0.00 | 83 | 1002.4 |
| 20260507143001 | 72 | 298 | 12.0 | 17.0 | 0.00 | 0.00 | 0.00 | 83 | 1002.8 |
| 20260507141604 | 71 | 320 | 14.0 | 23.0 | 0.00 | 0.00 | 0.00 | 83 | 1003.3 |
| 20260507140059 | 71 | 320 | 15.0 | 23.0 | 0.00 | 0.00 | 0.00 | 83 | 1003.4 |
| 20260507134558 | 71 | 301 | 16.0 | 27.0 | 0.00 | 0.00 | 0.00 | 83 | 1003.4 |
| 20260507133058 | 71 | 314 | 17.0 | 27.0 | 0.00 | 0.00 | 0.00 | 83 | 1003.2 |
| 20260507131602 | 70 | 299 | 21.0 | 31.0 | 0.00 | 0.00 | 0.00 | 83 | 1003.3 |
| 20260507130057 | 71 | 308 | 21.0 | 33.0 | 0.00 | 0.00 | 0.00 | 82 | 1003.2 |
| 20260507124603 | 72 | 307 | 22.0 | 34.0 | 0.00 | 0.00 | 0.00 | 80 | 1003.1 |
| 20260507123053 | 72 | 306 | 24.0 | 32.0 | 0.00 | 0.00 | 0.00 | 81 | 1003.9 |
| 20260507121551 | 71 | 294 | 19.0 | 31.0 | 0.00 | 0.00 | 0.00 | 82 | 1004.6 |
| 20260507120052 | 71 | 307 | 22.0 | 36.0 | 0.00 | 0.00 | 0.00 | 82 | 1004.6 |
| 20260507114604 | 71 | 293 | 23.0 | 31.0 | 0.00 | 0.00 | 0.00 | 82 | 1005.0 |
| 20260507113104 | 71 | 292 | 19.0 | 27.0 | 0.00 | 0.00 | 0.00 | 83 | 1004.7 |
| 20260507111549 | 71 | 296 | 22.0 | 31.0 | 0.00 | 0.00 | 0.00 | 82 | 1004.7 |
| 20260507110047 | 71 | 295 | 21.0 | 29.0 | 0.00 | 0.00 | 0.00 | 83 | 1004.9 |
| 20260507104545 | 71 | 323 | 16.0 | 27.0 | 0.00 | 0.00 | 0.00 | 84 | 1005.1 |
| 20260507103050 | 70 | 303 | 22.0 | 30.0 | 0.00 | 0.00 | 0.00 | 84 | 1005.0 |
| 20260507101546 | 71 | 312 | 19.0 | 29.0 | 0.00 | 0.00 | 0.00 | 84 | 1004.8 |
| 20260507100040 | 71 | 308 | 19.0 | 28.0 | 0.00 | 0.00 | 0.00 | 84 | 1004.9 |
| 20260507094541 | 71 | 305 | 22.0 | 32.0 | 0.00 | 0.00 | 0.00 | 84 | 1005.0 |
| 20260507093036 | 71 | 304 | 16.0 | 30.0 | 0.00 | 0.00 | 0.00 | 84 | 1005.5 |
| 20260507091537 | 71 | 293 | 17.0 | 26.0 | 0.00 | 0.00 | 0.00 | 85 | 1005.9 |
| 20260507090033 | 71 | 312 | 18.0 | 27.0 | 0.00 | 0.00 | 0.00 | 85 | 1006.0 |
| 20260507084541 | 71 | 287 | 16.0 | 27.0 | 0.00 | 0.00 | 0.00 | 85 | 1005.9 |
| 20260507083031 | 70 | 292 | 16.0 | 29.0 | 0.00 | 0.00 | 0.00 | 86 | 1006.2 |
| 20260507081537 | 70 | 291 | 20.0 | 26.0 | 0.00 | 0.00 | 0.00 | 86 | 1006.0 |
| 20260507080030 | 70 | 295 | 16.0 | 29.0 | 0.00 | 0.00 | 0.00 | 86 | 1005.9 |
| 20260507074531 | 71 | 291 | 16.0 | 29.0 | 0.00 | 0.00 | 0.00 | 86 | 1006.0 |
| 20260507073027 | 71 | 290 | 20.0 | 31.0 | 0.00 | 0.00 | 0.00 | 86 | 1005.9 |
| 20260507071525 | 71 | 294 | 23.0 | 36.0 | 0.00 | 0.00 | 0.00 | 85 | 1005.9 |
| 20260507070023 | 71 | 309 | 22.0 | 32.0 | 0.00 | 0.00 | 0.00 | 86 | 1006.0 |
| 20260507063043 | 72 | 291 | 24.0 | 35.0 | 0.00 | 0.00 | 0.00 | 86 | 1006.0 |
| 20260507061542 | 71 | 301 | 24.0 | 37.0 | 0.00 | 0.00 | 0.00 | 87 | 1006.3 |
| 20260507060038 | 71 | 299 | 19.0 | 33.0 | 0.00 | 0.00 | 0.00 | 87 | 1006.6 |
| 20260507054534 | 71 | 286 | 21.0 | 31.0 | 0.00 | 0.00 | 0.00 | 88 | 1007.1 |
| 20260507053031 | 71 | 302 | 20.0 | 30.0 | 0.00 | 0.00 | 0.00 | 88 | 1007.6 |
| 20260507051528 | 71 | 297 | 18.0 | 29.0 | 0.00 | 0.00 | 0.00 | 88 | 1008.1 |
| 20260507050029 | 71 | 312 | 20.0 | 28.0 | 0.00 | 0.00 | 0.00 | 88 | 1008.3 |
| 20260507044522 | 71 | 292 | 20.0 | 27.0 | 0.00 | 0.00 | 0.00 | 89 | 1008.7 |
| 20260507043026 | 71 | 301 | 19.0 | 27.0 | 0.00 | 0.00 | 0.00 | 89 | 1008.9 |
| 20260507041520 | 71 | 303 | 17.0 | 28.0 | 0.00 | 0.00 | 0.00 | 90 | 1009.0 |
| 20260507040019 | 71 | 303 | 18.0 | 24.0 | 0.00 | 0.00 | 0.00 | 90 | 1009.0 |
| 20260507034522 | 71 | 314 | 19.0 | 24.0 | 0.00 | 0.00 | 0.00 | 90 | 1009.6 |
| 20260507033015 | 71 | 318 | 16.0 | 25.0 | 0.00 | 0.00 | 0.00 | 90 | 1010.2 |
| 20260507031509 | 71 | 290 | 14.0 | 22.0 | 0.00 | 0.00 | 0.00 | 91 | 1010.4 |
| 20260507030006 | 71 | 308 | 15.0 | 21.0 | 0.00 | 0.00 | 0.00 | 91 | 1010.8 |
| 20260507024501 | 71 | 312 | 12.0 | 17.0 | 0.00 | 0.00 | 0.00 | 91 | 1011.2 |
| 20260507023109 | 71 | 322 | 12.0 | 20.0 | 0.00 | 0.00 | 0.00 | 90 | 1011.6 |
| 20260507021556 | 71 | 318 | 14.0 | 19.0 | 0.00 | 0.00 | 0.00 | 91 | 1011.7 |
| 20260507020100 | 71 | 322 | 12.0 | 19.0 | 0.00 | 0.00 | 0.00 | 90 | 1011.8 |
| 20260507014556 | 71 | 324 | 12.0 | 21.0 | 0.00 | 0.00 | 0.00 | 91 | 1012.0 |
| 20260507013050 | 71 | 326 | 12.0 | 18.0 | 0.00 | 0.00 | 0.00 | 91 | 1012.0 |
| 20260507011549 | 71 | 320 | 11.0 | 16.0 | 0.00 | 0.00 | 0.00 | 91 | 1012.2 |
| 20260507010046 | 71 | 336 | 10.0 | 16.0 | 0.00 | 0.00 | 0.00 | 90 | 1012.4 |
| 20260507004546 | 71 | 333 | 11.0 | 18.0 | 0.00 | 0.00 | 0.00 | 90 | 1012.5 |
| 20260507003046 | 72 | 333 | 11.0 | 17.0 | 0.00 | 0.00 | 0.00 | 90 | 1012.7 |
| 20260507001607 | 72 | 320 | 11.0 | 17.0 | 0.00 | 0.00 | 0.00 | 90 | 1012.7 |
| 20260507000044 | 72 | 324 | 13.0 | 18.0 | 0.00 | 0.00 | 0.00 | 90 | 1012.7 |
| 20260506234548 | 71 | 325 | 10.0 | 17.0 | 0.00 | 0.00 | 0.00 | 91 | 1012.8 |
| 20260506233041 | 72 | 336 | 11.0 | 16.0 | 0.00 | 0.00 | 0.00 | 90 | 1012.7 |
| 20260506231542 | 72 | 341 | 10.0 | 15.0 | 0.00 | 0.00 | 0.00 | 90 | 1012.7 |
| 20260506230051 | 72 | 315 | 10.0 | 15.0 | 0.00 | 0.00 | 0.00 | 90 | 1012.7 |
| 20260506224538 | 72 | 326 | 12.0 | 19.0 | 0.00 | 0.00 | 0.00 | 90 | 1012.6 |
| 20260506223035 | 73 | 317 | 13.0 | 19.0 | 0.00 | 0.00 | 0.00 | 89 | 1012.5 |
| 20260506221534 | 73 | 316 | 15.0 | 21.0 | 0.00 | 0.00 | 0.00 | 89 | 1012.6 |
| 20260506220036 | 72 | 314 | 15.0 | 19.0 | 0.00 | 0.00 | 0.00 | 89 | 1012.6 |
| 20260506214529 | 73 | 318 | 12.0 | 16.0 | 0.00 | 0.00 | 0.00 | 87 | 1012.7 |
| 20260506213027 | 73 | 315 | 9.0 | 13.0 | 0.00 | 0.00 | 0.00 | 86 | 1012.8 |
| 20260506211525 | 73 | 312 | 8.0 | 12.0 | 0.00 | 0.00 | 0.00 | 85 | 1012.9 |
| 20260506210045 | 74 | 314 | 8.0 | 12.0 | 0.00 | 0.00 | 0.00 | 81 | 1012.9 |
| 20260506204525 | 76 | 307 | 9.0 | 13.0 | 0.00 | 0.00 | 0.00 | 78 | 1012.9 |
| 20260506203023 | 76 | 319 | 11.0 | 16.0 | 0.00 | 0.00 | 0.00 | 76 | 1012.7 |
| 20260506201525 | 77 | 291 | 10.0 | 14.0 | 0.00 | 0.00 | 0.00 | 76 | 1012.7 |
| 20260506200023 | 77 | 303 | 10.0 | 16.0 | 0.00 | 0.00 | 0.00 | 75 | 1012.8 |
| 20260506194523 | 78 | 312 | 8.0 | 13.0 | 0.00 | 0.00 | 0.00 | 72 | 1012.6 |
| 20260506193032 | 79 | 287 | 11.0 | 16.0 | 0.00 | 0.00 | 0.00 | 68 | 1012.7 |
| 20260506191519 | 81 | 289 | 13.0 | 19.0 | 0.00 | 0.00 | 0.00 | 65 | 1012.8 |
| 20260506190019 | 82 | 273 | 16.0 | 28.0 | 0.00 | 0.00 | 0.00 | 60 | 1012.8 |
| 20260506184515 | 82 | 310 | 15.0 | 22.0 | 0.00 | 0.00 | 0.00 | 64 | 1013.0 |
| 20260506183013 | 82 | 274 | 16.0 | 25.0 | 0.00 | 0.00 | 0.00 | 63 | 1013.1 |
| 20260506181512 | 82 | 280 | 15.0 | 25.0 | 0.00 | 0.00 | 0.00 | 70 | 1013.3 |
| 20260506180010 | 81 | 314 | 14.0 | 20.0 | 0.00 | 0.00 | 0.00 | 71 | 1013.5 |
| 20260506174507 | 81 | 272 | 14.0 | 23.0 | 0.00 | 0.00 | 0.00 | 73 | 1013.7 |
| 20260506173005 | 81 | 272 | 16.0 | 23.0 | 0.00 | 0.00 | 0.00 | 71 | 1014.0 |
| 20260506171504 | 81 | 293 | 12.0 | 21.0 | 0.00 | 0.00 | 0.00 | 71 | 1014.0 |
| 20260506170002 | 82 | 256 | 17.0 | 23.0 | 0.00 | 0.00 | 0.00 | 68 | 1014.3 |
| 20260506164625 | 82 | 272 | 13.0 | 23.0 | 0.00 | 0.00 | 0.00 | 70 | 1014.3 |
| 20260506163101 | 81 | 256 | 10.0 | 20.0 | 0.00 | 0.00 | 0.00 | 74 | 1014.6 |
| 20260506161553 | 81 | 278 | 14.0 | 20.0 | 0.00 | 0.00 | 0.00 | 75 | 1015.0 |
| 20260506160056 | 80 | 268 | 14.0 | 20.0 | 0.00 | 0.00 | 0.00 | 77 | 1015.3 |